Location: Prague
(50.0830°N, 14.4670°E)
Time: 11:49:28
(UTC+01:00)

AO-7 - Pass Details

Date: 13 December 2021
Orbit: 1440 x 1459 km, 101.9° (Epoch: 29 January)

Event Time Altitude Azimuth Distance (km) Brightness Sun altitude
Rises 03:14:11 0° 23° (NNE) 4,553 ? -43.2°
Reaches altitude 10° 03:17:27 10° 34° (NE) 3,573 ? -42.7°
Maximum altitude 03:24:37 31° 94° (E) 2,332 ? -41.6°
Drops below altitude 10° 03:31:45 10° 153° (SSE) 3,567 ? -40.5°
Sets 03:34:59 0° 164° (SSE) 4,544 ? -40.0°
